SCB32T EICK-EGAA

Flight info

Callsign SCB32T
Flight time 0h 39m
Altitude 31000
Route TISMO1N TISMO DCT OSGAR DCT RONON DCT NEVRI DCT BELZU DCT
Aircraft B738/M-SDE2E3FGHIRWXY/LB1

Departure

Time 2026-05-04 20:11
Airport Cork International Airport (EICK)

Arrival

Time 2026-05-04 20:50
Airport Belfast International Airport (EGAA)
Time Latitude Longitude Altitude Speed Heading
2026-05-04 19:57 51.85181 -8.49251 503 ft 0 kts 161°
2026-05-04 20:04 51.85179 -8.49250 503 ft 1 kts 163°
2026-05-04 20:04 51.85164 -8.49254 503 ft 3 kts 201°
2026-05-04 20:05 51.85147 -8.49278 503 ft 4 kts 225°
2026-05-04 20:05 51.85128 -8.49312 503 ft 4 kts 230°
2026-05-04 20:05 51.85104 -8.49345 503 ft 5 kts 208°
2026-05-04 20:05 51.85069 -8.49344 503 ft 6 kts 164°
2026-05-04 20:06 51.85022 -8.49318 503 ft 9 kts 159°
2026-05-04 20:06 51.84954 -8.49280 503 ft 12 kts 165°
2026-05-04 20:06 51.84871 -8.49242 503 ft 12 kts 159°
2026-05-04 20:06 51.84803 -8.49289 503 ft 12 kts 246°
2026-05-04 20:07 51.84776 -8.49411 503 ft 11 kts 250°
2026-05-04 20:07 51.84712 -8.49455 503 ft 13 kts 161°
2026-05-04 20:07 51.84584 -8.49381 503 ft 25 kts 160°
2026-05-04 20:07 51.84385 -8.49263 503 ft 34 kts 160°
2026-05-04 20:08 51.84158 -8.49129 503 ft 35 kts 160°
2026-05-04 20:08 51.83936 -8.48999 503 ft 33 kts 160°
2026-05-04 20:08 51.83723 -8.48872 503 ft 32 kts 160°
2026-05-04 20:08 51.83520 -8.48751 503 ft 28 kts 160°
2026-05-04 20:09 51.83381 -8.48668 503 ft 15 kts 160°
2026-05-04 20:09 51.83299 -8.48591 503 ft 13 kts 118°
2026-05-04 20:09 51.83250 -8.48548 503 ft 9 kts 238°
2026-05-04 20:09 51.83285 -8.48615 503 ft 0 kts 341°
2026-05-04 20:10 51.83294 -8.48620 503 ft 8 kts 341°
2026-05-04 20:10 51.83602 -8.48801 503 ft 90 kts 340°
2026-05-04 20:10 51.84419 -8.49282 639 ft 147 kts 340°
2026-05-04 20:11 51.85352 -8.49801 1712 ft 134 kts 342°
2026-05-04 20:11 51.86277 -8.50306 2411 ft 153 kts 344°
2026-05-04 20:11 51.87429 -8.50763 2735 ft 188 kts
2026-05-04 20:11 51.88688 -8.49913 2965 ft 214 kts 44°
2026-05-04 20:12 51.89653 -8.47988 3454 ft 224 kts 50°
2026-05-04 20:12 51.90635 -8.45972 3999 ft 230 kts 50°
2026-05-04 20:12 51.91634 -8.43946 4698 ft 232 kts 50°
2026-05-04 20:12 51.92664 -8.41890 5306 ft 238 kts 50°
2026-05-04 20:13 51.93734 -8.39782 5692 ft 257 kts 48°
2026-05-04 20:13 51.94905 -8.37481 6348 ft 270 kts 49°
2026-05-04 20:13 51.96112 -8.35118 7285 ft 272 kts 49°
2026-05-04 20:13 51.97314 -8.32775 8380 ft 270 kts 49°
2026-05-04 20:14 51.98536 -8.30401 9288 ft 278 kts 49°
2026-05-04 20:14 51.99782 -8.27983 10288 ft 281 kts 49°
2026-05-04 20:14 52.01077 -8.25472 10814 ft 303 kts 49°
2026-05-04 20:14 52.02491 -8.22732 11146 ft 327 kts 49°
2026-05-04 20:15 52.03953 -8.19895 11920 ft 335 kts 49°
2026-05-04 20:15 52.05457 -8.16973 12908 ft 338 kts 49°
2026-05-04 20:15 52.06975 -8.14020 13875 ft 343 kts 50°
2026-05-04 20:15 52.08515 -8.11025 14789 ft 347 kts 50°
2026-05-04 20:16 52.10071 -8.07996 15709 ft 351 kts 50°
2026-05-04 20:16 52.11645 -8.04927 16627 ft 355 kts 50°
2026-05-04 20:16 52.13280 -8.01887 17568 ft 359 kts 43°
2026-05-04 20:16 52.15372 -7.99639 18475 ft 363 kts 27°
2026-05-04 20:17 52.17621 -7.97850 19283 ft 366 kts 26°
2026-05-04 20:17 52.19930 -7.96053 20087 ft 370 kts 26°
2026-05-04 20:17 52.22259 -7.94241 20890 ft 373 kts 26°
2026-05-04 20:17 52.24606 -7.92405 21674 ft 376 kts 27°
2026-05-04 20:18 52.26971 -7.90540 22397 ft 381 kts 27°
2026-05-04 20:18 52.29374 -7.88632 23045 ft 386 kts 27°
2026-05-04 20:18 52.31796 -7.86700 23773 ft 389 kts 27°
2026-05-04 20:18 52.34233 -7.84750 24426 ft 391 kts 27°
2026-05-04 20:19 52.36646 -7.82814 25040 ft 393 kts 27°
2026-05-04 20:19 52.39111 -7.80834 25634 ft 396 kts 27°
2026-05-04 20:19 52.41588 -7.78840 26234 ft 398 kts 27°
2026-05-04 20:19 52.44081 -7.76829 26813 ft 400 kts 27°
2026-05-04 20:20 52.46588 -7.74807 27386 ft 403 kts 27°
2026-05-04 20:20 52.49107 -7.72771 27962 ft 405 kts 27°
2026-05-04 20:20 52.51643 -7.70719 28454 ft 408 kts 26°
2026-05-04 20:20 52.54212 -7.68638 28825 ft 415 kts 26°
2026-05-04 20:21 52.56803 -7.66536 29394 ft 416 kts 26°
2026-05-04 20:21 52.59350 -7.64467 30116 ft 413 kts 26°
2026-05-04 20:21 52.64476 -7.60295 31071 ft 412 kts 26°
2026-05-04 20:22 52.69591 -7.56121 31096 ft 409 kts 26°
2026-05-04 20:22 52.74686 -7.51953 31109 ft 409 kts 26°
2026-05-04 20:23 52.79784 -7.47770 31097 ft 410 kts 26°
2026-05-04 20:23 52.84863 -7.43592 31103 ft 411 kts 26°
2026-05-04 20:24 52.89995 -7.39360 31102 ft 413 kts 26°
2026-05-04 20:24 52.95136 -7.35108 31101 ft 413 kts 26°
2026-05-04 20:25 53.00278 -7.30845 31095 ft 413 kts 26°
2026-05-04 20:25 53.05379 -7.26574 31081 ft 414 kts 27°
2026-05-04 20:26 53.10380 -7.21754 31104 ft 417 kts 30°
2026-05-04 20:26 53.15355 -7.16710 31100 ft 420 kts 30°
2026-05-04 20:27 53.20352 -7.11668 31096 ft 420 kts 30°
2026-05-04 20:27 53.22829 -7.09182 30543 ft 422 kts 30°
2026-05-04 20:27 53.25334 -7.06673 29889 ft 418 kts 30°
2026-05-04 20:28 53.27808 -7.04195 29310 ft 411 kts 30°
2026-05-04 20:28 53.30242 -7.01755 28744 ft 405 kts 30°
2026-05-04 20:28 53.32576 -6.99413 28188 ft 399 kts 30°
2026-05-04 20:28 53.34943 -6.97034 27626 ft 395 kts 30°
2026-05-04 20:29 53.37282 -6.94680 27074 ft 390 kts 30°
2026-05-04 20:29 53.39596 -6.92350 26526 ft 386 kts 30°
2026-05-04 20:29 53.41887 -6.90037 25986 ft 383 kts 31°
2026-05-04 20:29 53.44128 -6.87774 25461 ft 380 kts 31°
2026-05-04 20:30 53.46379 -6.85497 24936 ft 377 kts 31°
2026-05-04 20:30 53.48615 -6.83232 24414 ft 374 kts 31°
2026-05-04 20:30 53.50834 -6.80981 23891 ft 372 kts 31°
2026-05-04 20:30 53.53043 -6.78739 23298 ft 370 kts 31°
2026-05-04 20:31 53.55238 -6.76507 22722 ft 367 kts 31°
2026-05-04 20:31 53.57415 -6.74290 22171 ft 365 kts 31°
2026-05-04 20:31 53.59578 -6.72085 21643 ft 362 kts 31°
2026-05-04 20:31 53.61723 -6.69897 21119 ft 359 kts 31°
2026-05-04 20:32 53.63822 -6.67752 20626 ft 357 kts 31°
2026-05-04 20:32 53.65939 -6.65587 20116 ft 354 kts 31°
2026-05-04 20:32 53.68042 -6.63434 19613 ft 353 kts 31°
2026-05-04 20:32 53.70132 -6.61292 19119 ft 351 kts 31°
2026-05-04 20:33 53.72227 -6.59182 18453 ft 354 kts 30°
2026-05-04 20:33 53.74388 -6.57158 17791 ft 355 kts 28°
2026-05-04 20:33 53.76555 -6.55180 17234 ft 352 kts 28°
2026-05-04 20:33 53.78703 -6.53221 16710 ft 349 kts 28°
2026-05-04 20:34 53.80830 -6.51272 16206 ft 346 kts 28°
2026-05-04 20:34 53.82910 -6.49355 15726 ft 344 kts 27°
2026-05-04 20:34 53.84998 -6.47420 15240 ft 341 kts 27°
2026-05-04 20:34 53.87072 -6.45493 14757 ft 339 kts 28°
2026-05-04 20:35 53.89131 -6.43573 14276 ft 337 kts 28°
2026-05-04 20:35 53.91177 -6.41663 13780 ft 335 kts 27°
2026-05-04 20:35 53.93213 -6.39759 13251 ft 333 kts 27°
2026-05-04 20:35 53.95236 -6.37866 12748 ft 331 kts 27°
2026-05-04 20:36 53.97243 -6.35985 12262 ft 328 kts 27°
2026-05-04 20:36 53.99234 -6.34118 11787 ft 325 kts 27°
2026-05-04 20:36 54.01206 -6.32267 11330 ft 323 kts 27°
2026-05-04 20:36 54.03164 -6.30426 10870 ft 321 kts 27°
2026-05-04 20:37 54.05080 -6.28636 10569 ft 313 kts 25°
2026-05-04 20:37 54.07036 -6.27049 10067 ft 313 kts 24°
2026-05-04 20:37 54.08961 -6.25453 9947 ft 300 kts 24°
2026-05-04 20:37 54.10792 -6.23902 9806 ft 289 kts 24°
2026-05-04 20:38 54.12574 -6.22377 9495 ft 285 kts 25°
2026-05-04 20:38 54.14405 -6.21187 9079 ft 281 kts
2026-05-04 20:38 54.16323 -6.21478 8747 ft 275 kts 347°
2026-05-04 20:38 54.18195 -6.22072 8401 ft 273 kts 347°
2026-05-04 20:39 54.20059 -6.22654 8050 ft 272 kts 348°
2026-05-04 20:39 54.21880 -6.23215 7971 ft 260 kts 348°
2026-05-04 20:39 54.23617 -6.23745 7912 ft 245 kts 348°
2026-05-04 20:39 54.25250 -6.24236 7671 ft 234 kts 348°
2026-05-04 20:40 54.26841 -6.24711 7197 ft 231 kts 347°
2026-05-04 20:40 54.28419 -6.25179 6660 ft 230 kts 347°
2026-05-04 20:40 54.29970 -6.25635 6182 ft 228 kts 348°
2026-05-04 20:40 54.31551 -6.26101 6068 ft 232 kts 348°
2026-05-04 20:41 54.33130 -6.26570 5995 ft 228 kts 348°
2026-05-04 20:41 54.34686 -6.27034 5991 ft 228 kts 348°
2026-05-04 20:41 54.36254 -6.27504 5992 ft 229 kts 348°
2026-05-04 20:41 54.37822 -6.27976 5985 ft 229 kts 348°
2026-05-04 20:42 54.39389 -6.28449 5980 ft 228 kts 347°
2026-05-04 20:42 54.40954 -6.28921 5989 ft 228 kts 347°
2026-05-04 20:42 54.42514 -6.29391 5992 ft 228 kts 348°
2026-05-04 20:42 54.44076 -6.29870 5988 ft 227 kts 346°
2026-05-04 20:43 54.45505 -6.30939 6005 ft 224 kts 326°
2026-05-04 20:43 54.46831 -6.32339 5681 ft 227 kts 327°
2026-05-04 20:43 54.48169 -6.33727 5156 ft 221 kts 328°
2026-05-04 20:43 54.49470 -6.35073 4640 ft 215 kts 328°
2026-05-04 20:44 54.50712 -6.36383 4109 ft 210 kts 324°
2026-05-04 20:44 54.51608 -6.38287 3576 ft 207 kts 291°
2026-05-04 20:44 54.51871 -6.40696 3119 ft 204 kts 278°
2026-05-04 20:44 54.52015 -6.43030 3013 ft 187 kts 278°
2026-05-04 20:45 54.52180 -6.45179 2985 ft 178 kts 289°
2026-05-04 20:45 54.52917 -6.46800 2999 ft 177 kts 329°
2026-05-04 20:45 54.54045 -6.47672 2996 ft 179 kts 337°
2026-05-04 20:45 54.55199 -6.48468 2994 ft 178 kts 338°
2026-05-04 20:46 54.56413 -6.48793 2983 ft 181 kts
2026-05-04 20:46 54.57583 -6.48145 2977 ft 169 kts
2026-05-04 20:46 54.58709 -6.47837 2978 ft 171 kts 21°
2026-05-04 20:46 54.59502 -6.46173 3025 ft 193 kts 67°
2026-05-04 20:47 54.59909 -6.43966 2954 ft 199 kts 73°
2026-05-04 20:47 54.60242 -6.41649 2731 ft 196 kts 65°
2026-05-04 20:47 54.60800 -6.39548 2518 ft 190 kts 61°
2026-05-04 20:47 54.61353 -6.37503 2294 ft 185 kts 62°
2026-05-04 20:48 54.61950 -6.35546 1873 ft 181 kts 57°
2026-05-04 20:48 54.62458 -6.33648 1642 ft 169 kts 61°
2026-05-04 20:48 54.62966 -6.31866 1351 ft 161 kts 59°
2026-05-04 20:48 54.63422 -6.30241 1243 ft 141 kts 62°
2026-05-04 20:49 54.63813 -6.28741 1001 ft 133 kts 62°
2026-05-04 20:49 54.64212 -6.27325 775 ft 129 kts 63°
2026-05-04 20:49 54.64579 -6.25917 630 ft 129 kts 63°
2026-05-04 20:49 54.64961 -6.24508 451 ft 129 kts 63°
2026-05-04 20:50 54.65329 -6.23144 282 ft 122 kts 63°
2026-05-04 20:50 54.65647 -6.21967 271 ft 87 kts 65°
2026-05-04 20:50 54.65806 -6.21381 271 ft 32 kts 56°
2026-05-04 20:50 54.65913 -6.21362 275 ft 9 kts 337°
2026-05-04 20:51 54.65953 -6.21404 271 ft 1 kts 308°
2026-05-04 20:51 54.65954 -6.21408 274 ft 0 kts 305°
2026-05-04 20:52 54.65961 -6.21457 271 ft 10 kts 268°
2026-05-04 20:52 54.65922 -6.21618 271 ft 19 kts 245°
2026-05-04 20:52 54.65864 -6.21835 274 ft 20 kts 245°
2026-05-04 20:52 54.65820 -6.21998 275 ft 11 kts 245°
2026-05-04 20:53 54.65789 -6.22116 274 ft 11 kts 248°
2026-05-04 20:53 54.65771 -6.22239 271 ft 11 kts 258°
2026-05-04 20:53 54.65762 -6.22368 271 ft 11 kts 263°
2026-05-04 20:53 54.65753 -6.22494 271 ft 10 kts 262°
2026-05-04 20:54 54.65746 -6.22617 271 ft 10 kts 267°
2026-05-04 20:54 54.65741 -6.22744 273 ft 12 kts 266°
2026-05-04 20:54 54.65709 -6.22903 271 ft 15 kts 238°
2026-05-04 20:54 54.65646 -6.23052 271 ft 15 kts 233°
2026-05-04 20:55 54.65589 -6.23186 271 ft 8 kts 234°
2026-05-04 20:55 54.65555 -6.23266 271 ft 9 kts 234°
2026-05-04 20:55 54.65536 -6.23360 271 ft 9 kts 291°
2026-05-04 20:55 54.65582 -6.23378 271 ft 8 kts 20°
2026-05-04 20:56 54.65600 -6.23380 271 ft 3 kts 337°
2026-05-04 20:56 54.65604 -6.23409 276 ft 0 kts 252°